Weather History for KSFZ - January, 2013

Change the Weather History Date:

Tuesday, January 8, 2013

  Actual Average Record
Temperature  
Mean Temperature 34 °F -  
Max Temperature 46 °F 34 °F 66 °F (2008)
Min Temperature 23 °F 20 °F -2 °F (2015)
Degree Days  
Heating Degree Days 30    
Moisture  
Dew Point 24 °F    
Average Humidity 65    
Maximum Humidity 80    
Minimum Humidity 46    
Precipitation  
Precipitation 0.00 in - - ()
Sea Level Pressure  
Sea Level Pressure 30.32 in    
Wind  
Wind Speed 5 mph (SW)    
Max Wind Speed 14 mph    
Max Gust Speed 28 mph    
Visibility 10 miles    
Events      
Averages and records for this station are not official NWS values.
T = Trace of Precipitation, MM = Missing Value Source: NWS Daily Summary

Daily Weather History Graph

Daily Weather History Graph

Search for Another Location

Airport or City:

Trip Planner

Search our weather history database for the weather conditions in past years. The results will help you decide how hot, cold, wet, or windy it might be!

Date:

Astronomy

Jan. 08, 2013 Rise Set
Actual Time 7:13 AM EST 4:32 PM EST
Civil Twilight 6:42 AM EST 5:03 PM EST
Nautical Twilight 6:07 AM EST 5:38 PM EST
Astronomical Twilight 5:33 AM EST 6:12 PM EST
Moon 3:42 AM EST (1/8) 1:32 PM EST (1/8)
Length of Visible Light 10h 21m
Length of Day
9h 19m
Waning Crescent, 14% of the Moon is Illuminated
Jan 8
Waning Crescent
Jan 11
New
Jan 18
First Quarter
Jan 26
Full
Feb 3
Last Quarter

Hourly Weather History & Observations

Time (EST) Temp. Windchill Dew Point Humidity Pressure Visibility Wind Dir Wind Speed Gust Speed Precip Events Conditions
12:35 AM 23.0 °F - 15.8 °F 74% 30.34 in 10.0 mi Calm Calm - N/A   Clear
12:55 AM 23.0 °F 18.4 °F 17.6 °F 80% 30.34 in 10.0 mi South 3.5 mph - N/A   Clear
1:15 AM 24.8 °F - 17.6 °F 74% 30.33 in 10.0 mi Calm Calm - N/A   Clear
1:55 AM 23.0 °F 18.4 °F 15.8 °F 74% 30.33 in 10.0 mi SSW 3.5 mph - N/A   Clear
2:15 AM 23.0 °F 17.0 °F 15.8 °F 74% 30.34 in 10.0 mi SSW 4.6 mph - N/A   Clear
2:35 AM 23.0 °F 18.4 °F 15.8 °F 74% 30.33 in 10.0 mi SSW 3.5 mph - N/A   Clear
2:55 AM 23.0 °F 18.4 °F 15.8 °F 74% 30.32 in 10.0 mi SSW 3.5 mph - N/A   Clear
3:35 AM 24.8 °F 20.5 °F 17.6 °F 74% 30.31 in 10.0 mi SW 3.5 mph - N/A   Clear
4:15 AM 26.6 °F 21.2 °F 21.2 °F 80% 30.30 in 10.0 mi SSW 4.6 mph - N/A   Clear
4:35 AM 26.6 °F 20.0 °F 21.2 °F 80% 30.30 in 10.0 mi SW 5.8 mph - N/A   Clear
4:55 AM 28.4 °F 23.3 °F 21.2 °F 74% 30.31 in 10.0 mi SW 4.6 mph - N/A   Clear
5:15 AM 28.4 °F 23.3 °F 21.2 °F 74% 30.31 in 10.0 mi SW 4.6 mph - N/A   Clear
5:35 AM 28.4 °F 22.2 °F 23.0 °F 80% 30.31 in 10.0 mi SW 5.8 mph - N/A   Clear
6:35 AM 30.2 °F 22.6 °F 24.8 °F 80% 30.32 in 10.0 mi SW 8.1 mph 16.1 mph N/A   Clear
6:55 AM 32.0 °F 24.8 °F 24.8 °F 75% 30.32 in 10.0 mi SSW 8.1 mph - N/A   Clear
7:15 AM 32.0 °F 24.2 °F 24.8 °F 75% 30.32 in 10.0 mi SW 9.2 mph - N/A   Clear
7:35 AM 33.8 °F 27.0 °F 24.8 °F 70% 30.33 in 10.0 mi SW 8.1 mph - N/A   Clear
7:55 AM 33.8 °F 25.8 °F 24.8 °F 70% 30.34 in 10.0 mi SW 10.4 mph 19.6 mph N/A   Clear
8:15 AM 35.6 °F 29.2 °F 24.8 °F 65% 30.34 in 10.0 mi SW 8.1 mph - N/A   Clear
8:35 AM 35.6 °F 29.9 °F 24.8 °F 65% 30.35 in 10.0 mi SW 6.9 mph 20.7 mph N/A   Clear
8:55 AM 37.4 °F 29.3 °F 26.6 °F 65% 30.34 in 10.0 mi SW 12.7 mph 20.7 mph N/A   Clear
9:35 AM 39.2 °F 31.2 °F 24.8 °F 56% 30.35 in 10.0 mi WSW 13.8 mph 23.0 mph N/A   Clear
9:55 AM 39.2 °F 32.5 °F 24.8 °F 56% 30.35 in 10.0 mi SW 10.4 mph 25.3 mph N/A   Clear
10:35 AM 41.0 °F 35.2 °F 26.6 °F 57% 30.34 in 10.0 mi WSW 9.2 mph 20.7 mph N/A   Clear
10:55 AM 42.8 °F 37.0 °F 26.6 °F 53% 30.33 in 10.0 mi WSW 10.4 mph 20.7 mph N/A   Clear
11:15 AM 42.8 °F 40.1 °F 26.6 °F 53% 30.31 in 10.0 mi SW 4.6 mph 27.6 mph N/A   Clear
11:35 AM 42.8 °F 37.5 °F 26.6 °F 53% 30.31 in 10.0 mi WSW 9.2 mph 18.4 mph N/A   Clear
11:55 AM 44.6 °F 39.2 °F 26.6 °F 49% 30.30 in 10.0 mi WSW 10.4 mph 19.6 mph N/A   Clear
12:15 PM 44.6 °F 40.2 °F 26.6 °F 49% 30.29 in 10.0 mi SW 8.1 mph 21.9 mph N/A   Clear
12:35 PM 44.6 °F 39.2 °F 26.6 °F 49% 30.29 in 10.0 mi SW 10.4 mph 16.1 mph N/A   Clear
12:55 PM 44.6 °F 39.7 °F 24.8 °F 46% 30.27 in 10.0 mi WSW 9.2 mph 23.0 mph N/A   Clear
1:55 PM 46.4 °F 41.9 °F 26.6 °F 46% 30.27 in 10.0 mi WSW 9.2 mph 17.3 mph N/A   Clear
2:15 PM 46.4 °F 42.9 °F 26.6 °F 46% 30.27 in 10.0 mi SSW 6.9 mph 16.1 mph N/A   Clear
2:55 PM 44.6 °F 40.2 °F 26.6 °F 49% 30.28 in 10.0 mi SW 8.1 mph - N/A   Clear
3:15 PM 44.6 °F 40.7 °F 26.6 °F 49% 30.28 in 10.0 mi SW 6.9 mph - N/A   Clear
3:35 PM 44.6 °F 40.7 °F 26.6 °F 49% 30.28 in 10.0 mi SW 6.9 mph - N/A   Clear
3:55 PM 44.6 °F 40.2 °F 26.6 °F 49% 30.28 in 10.0 mi SW 8.1 mph 16.1 mph N/A   Clear
4:35 PM 42.8 °F 41.1 °F 24.8 °F 49% 30.29 in 10.0 mi SW 3.5 mph - N/A   Clear
4:55 PM 41.0 °F 38.0 °F 24.8 °F 53% 30.29 in 10.0 mi WSW 4.6 mph - N/A   Clear
5:15 PM 39.2 °F 37.0 °F 24.8 °F 56% 30.30 in 10.0 mi SW 3.5 mph - N/A   Clear
5:35 PM 39.2 °F 35.9 °F 26.6 °F 61% 30.31 in 10.0 mi WSW 4.6 mph - N/A   Clear
5:55 PM 39.2 °F 35.9 °F 26.6 °F 61% 30.31 in 10.0 mi SW 4.6 mph - N/A   Clear
6:15 PM 37.4 °F 33.8 °F 24.8 °F 60% 30.32 in 10.0 mi SW 4.6 mph - N/A   Clear
6:35 PM 37.4 °F 33.8 °F 26.6 °F 65% 30.32 in 10.0 mi SW 4.6 mph - N/A   Clear
6:55 PM 37.4 °F 34.9 °F 26.6 °F 65% 30.32 in 10.0 mi SW 3.5 mph - N/A   Clear
7:15 PM 35.6 °F 32.8 °F 26.6 °F 70% 30.32 in 10.0 mi SSW 3.5 mph - N/A   Clear
7:35 PM 33.8 °F 28.6 °F 26.6 °F 75% 30.33 in 10.0 mi SW 5.8 mph - N/A   Clear
7:55 PM 33.8 °F 30.8 °F 26.6 °F 75% 30.33 in 10.0 mi SW 3.5 mph - N/A   Clear
8:15 PM 35.6 °F - 26.6 °F 70% 30.34 in 10.0 mi Calm Calm - N/A   Clear
8:35 PM 35.6 °F - 26.6 °F 70% 30.34 in 10.0 mi Calm Calm - N/A   Clear
9:35 PM 33.8 °F 30.8 °F 26.6 °F 75% 30.34 in 10.0 mi SW 3.5 mph - N/A   Clear
9:55 PM 32.0 °F 27.5 °F 26.6 °F 80% 30.35 in 10.0 mi SW 4.6 mph - N/A   Clear
10:15 PM 32.0 °F 27.5 °F 24.8 °F 75% 30.34 in 10.0 mi SW 4.6 mph - N/A   Clear
10:35 PM 33.8 °F 29.6 °F 26.6 °F 75% 30.34 in 10.0 mi WSW 4.6 mph - N/A   Clear
10:55 PM 32.0 °F 27.5 °F 26.6 °F 80% 30.33 in 10.0 mi WSW 4.6 mph - N/A   Clear
11:15 PM 32.0 °F 28.7 °F 24.8 °F 75% 30.33 in 10.0 mi SW 3.5 mph - N/A   Clear
11:35 PM 30.2 °F 26.7 °F 24.8 °F 80% 30.34 in 10.0 mi WSW 3.5 mph - N/A   Clear